星链-1245 (STARLINK-1245 )

导读 | 星芒AI

STARLINK-1245 是 SpaceX Starlink 项目中的一颗低轨通信卫星,属于第 24 批部署的 Starlink 卫星群。该卫星于 2021 年 11 月发射,运行在约 550 公里的轨道高度,旨在为全球用户提供高速互联网服务。它采用先进的相控阵天线和激光通信技术,支持低延迟、高带宽的数据传输。作为 Starlink 网络的重要组成部分,STARLINK-1245 有助于提升偏远地区的网络覆盖,促进全球数字连接。

基本信息
目录编号:
45215
目录名称:
STARLINK-1245
国际标识:
2020-012AP
轨道中心:
EARTH
卫星名称:
星链-1245
卫星全名:
星链-1245 (STARLINK-1245 )
卫星状态:
已陨落 最后检测时间 2024-06-25
发射日期:
2020-02-17 UTC
国别 :
美国 (US)
星等 :
--
轨道信息
数据来源 国际轨道数据
星历时间: 2024-06-25T04:02:08+0800
轨道信息已过期496天
半长轴: 6594.953km
偏心率: 0.0009599
轨道倾角: 53.036°
近地点辐角 338.933°
升交点赤经 243.238°
平近点角 156.653°
近地点: 210.487km
远地点: 223.149km
周期: 88.834分钟
每日圈数: 16.210083
详细信息
固有亮度:
5
最大亮度:
2.5
卫星平台:
Starlink V1.0
覆盖范围:
全球
运营商:
太空探索技术公司
运营商所在国:
美国
制造商(研发单位):
太空探索技术公司
制造商所在国:
美国
使用方式:
暂无
卫星简介
星链(Starlink)计划是由太空探索技术公司(SpaceX)提出的一个巨型低轨卫星互联网星座项目,计划在2019年至2024年间在太空搭建由约1.2万颗卫星组成的“星链”网络,其中1584颗将部署在地球上空550千米处的近地轨道,并从2020年开始工作。该卫星已陨落。